Location: Gl�nay
(46.8604°N, 0.2508°W)
Time: 13:58:38
(UTC+00:00)

Daily predictions for brighter satellites

Satellite Brightness Start Highest point End
(mag) Time Altitude Azimuth Time Altitude Azimuth Time Altitude Azimuth
Cosmos 2251 Rocket 3.6 19:22:19 10° S 19:27:33 59° ESE 19:32:49 10° NNE
Cosmos 1606 Rocket 4.5 19:24:14 10° SSW 19:28:31 55° WNW 19:32:46 10° N
ATLAS 3B R/B 2.9 19:22:59 10° NW 19:30:02 86° SW 19:37:22 10° SE
Cosmos 2279 Rocket 4.5 19:27:16 10° SSE 19:32:56 40° E 19:38:38 10° NNE
SAR-Lupe-1 4.4 19:30:16 10° N 19:33:52 73° WNW 19:37:25 10° SSW
Cosmos 1726 Rocket 4.4 19:33:03 10° SSW 19:37:20 56° WNW 19:41:38 10° N
Cosmos 1980 4.0 19:32:38 10° NNW 19:38:13 52° ENE 19:43:45 10° SE
SL-16 R/B 3.7 19:33:58 10° N 19:38:26 23° NE 19:42:52 10° E
MOS 1 4.5 19:33:08 10° SE 19:38:36 56° ENE 19:44:08 10° N
Cosmos 2026 Rocket 4.0 19:33:00 10° N 19:39:06 78° E 19:45:15 10° SSE
Cosmos 2151 4.3 19:37:03 10° NNE 19:40:35 24° ENE 19:44:06 10° SE
SME Rocket 3.5 19:36:42 10° NNE 19:40:40 76° WNW 19:45:56 10° SSW
USA 215 4.1 19:36:02 10° E 19:42:08 43° NNE 19:48:12 10° NW
FALCON 9 DEB 4.1 19:40:44 10° SSW 19:43:12 22° SE 19:45:41 10° E
SPOT 3 Rocket 4.4 19:41:02 10° SE 19:45:37 33° ENE 19:50:12 10° N
Cosmos 1455 2.4 19:43:02 10° SSW 19:46:45 72° W 19:50:30 10° N
Meteor 2-10 Rocket 4.4 19:42:15 10° SSW 19:47:28 58° WNW 19:52:57 10° N
COSMOS 2455 4.2 19:43:54 10° SE 19:47:40 17° ESE 19:51:28 10° ENE
SL-4 R/B 2.9 19:46:14 10° SSW 19:50:03 32° SE 19:54:07 10° ENE
IRS-1A Rocket 4.3 19:45:22 10° SSE 19:50:55 70° ENE 19:56:38 10° N
Cosmos 2219 Rocket 3.3 19:47:27 10° NW 19:52:52 45° WSW 19:58:13 10° S
USA 186 2.7 19:50:35 10° S 19:53:46 48° W 19:56:49 10° NNW
CZ-4 R/B 4.4 19:51:17 10° SW 19:53:51 16° W 19:56:26 10° NW
BREEZE-M DEB (TANK) 4.1 19:52:34 10° WSW 19:54:07 15° SSW 19:56:04 10° S
Cosmos 1076 Rocket 3.6 19:52:42 10° N 19:57:02 61° E 20:01:16 10° SSE
COSMOS 2428 3.6 19:51:37 10° NW 19:57:09 50° WSW 20:02:40 10° S
IGS 5A 4.4 19:54:20 12° SE 19:57:33 31° ENE 20:01:12 10° N
OBJECT-B 1.1 19:55:16 10° S 19:58:28 68° WSW 20:01:43 10° NNW
ATLAS 5 CENTAUR R/B 2.2 19:56:50 10° WNW 19:58:30 26° SW 20:00:44 10° SSE
Meteor 2-1 Rocket 4.4 19:55:01 10° S 20:00:53 90° E 20:06:52 10° NNE
Cosmos 44 4.2 19:57:27 10° SW 20:02:32 58° NW 20:07:53 10° NNE
Cosmos 1634 Rocket 4.2 19:56:40 10° S 20:02:57 81° W 20:09:13 10° N
Cosmos 2292 Rocket 4.2 19:57:04 10° N 20:03:34 66° ENE 20:08:22 10° SSE
Cosmos 2344 3.6 19:57:15 10° SW 20:04:45 86° NW 20:12:45 10° NE
Cosmos 1356 3.4 20:01:29 10° NNW 20:04:55 85° W 20:08:19 10° S
Cosmos 407 Rocket 3.6 20:01:28 10° S 20:06:23 50° ESE 20:11:24 10° NNE
ARIANE 5 R/B 4.3 20:04:04 13° E 20:06:26 19° ENE 20:09:31 10° NNE
IRIDIUM 104 4.4 20:05:41 10° SSE 20:10:48 61° E 20:15:58 10° N
Orbus 7S? 4.0 20:08:09 10° WSW 20:10:58 56° NNW 20:16:12 10° NE
Meteor 2-3 Rocket 4.1 20:07:54 10° N 20:13:28 47° ENE 20:17:47 16° SE
RESURS DK-1 4.2 20:09:57 10° WSW 20:13:45 34° NW 20:17:34 10° NNE
Cosmos 405 Rocket 3.2 20:13:07 10° NNW 20:17:05 61° W 20:20:55 10° S
Cosmos 44 Rocket 4.4 20:13:53 10° SSE 20:17:52 24° ESE 20:21:57 10° ENE
NOSS 0 Rocket 4.4 20:12:04 10° NW 20:18:12 62° WSW 20:24:19 10° SSE
Cosmos 1140 Rocket 3.5 20:14:38 10° S 20:19:39 57° ESE 20:24:41 10° NNE
IRIDIUM 114 4.3 20:14:45 10° S 20:19:56 74° E 20:25:10 10° N
Cosmos 1812 Rocket 3.5 20:17:16 10° S 20:21:42 76° E 20:26:11 10° NNE
CZ-2C R/B 4.2 20:20:55 10° NNE 20:25:03 37° E 20:27:43 19° SSE
Cosmos 2237 Rocket 2.3 20:20:27 10° NNW 20:26:06 77° WSW 20:30:47 15° SSE
Timation 2 Rocket 4.1 20:20:05 10° S 20:26:29 58° ESE 20:32:40 10° NE
Meteor 2-21 4.4 20:22:28 10° N 20:28:33 79° E 20:34:06 13° SSE
Abrixas rocket 2.1 20:27:10 10° W 20:28:20 34° NW 20:28:20 34° NW
IRIDIUM 103 4.3 20:23:52 10° S 20:29:05 88° E 20:34:20 10° N
Cosmos 1825 4.4 20:26:09 10° NNW 20:29:18 25° W 20:32:26 10° SW
Cosmos 2180 Rocket 4.4 20:23:10 10° S 20:29:19 81° E 20:35:28 10° N
BREEZE M DEB (TANK) 2.8 20:24:42 10° WSW 20:34:01 88° SSE 20:36:33 15° ENE
Spot 2 Rocket 4.1 20:32:07 23° ESE 20:34:45 39° ENE 20:39:27 10° N
Cosmos 1766 Rocket 4.3 20:30:46 10° N 20:34:46 35° ENE 20:36:22 27° ESE
FALCON 9 DEB 2.6 20:37:08 10° SW 20:40:10 70° SSE 20:41:37 28° ENE
Cosmos 1633 2.7 20:37:34 10° NNW 20:41:10 71° W 20:43:19 22° S
Cosmos 2227 Rocket 2.1 20:35:37 10° SSW 20:41:15 72° ESE 20:46:54 10° NNE
Cosmos 2082 4.1 20:37:15 14° S 20:41:31 39° ESE 20:46:42 10° NE
Okean 3 Rocket 4.0 20:39:37 10° N 20:44:00 45° ENE 20:45:39 31° SE
FALCON 9 DEB 2.7 20:41:46 10° WSW 20:44:48 89° NW 20:46:28 24° ENE
Cosmos 1655 Rocket 4.0 20:39:26 10° N 20:45:46 89° WSW 20:50:54 16° S
Lacrosse 5 rocket 3.5 20:42:38 10° NW 20:46:01 23° N 20:49:32 10° ENE
Cosmos 2297 Rocket 2.3 20:42:15 10° SSW 20:47:54 82° WNW 20:53:37 10° NNE
Cosmos 1869 3.7 20:47:58 36° SE 20:48:49 42° E 20:52:34 10° NNE
Resurs 01 Rocket 1.9 20:46:10 18° S 20:49:24 66° WSW 20:53:52 10° NNW
Meteor 1-4 Rocket 3.0 20:50:30 38° E 20:50:30 38° E 20:53:45 10° NNE
Genesis I 3.6 20:46:58 10° NW 20:50:55 60° WSW 20:52:33 32° S
FALCON 9 DEB 3.0 20:53:51 10° WSW 20:56:52 69° NNW 20:58:12 29° NE
Cosmos 2219 3.3 20:51:34 10° SSW 20:57:10 77° WNW 21:02:50 10° NNE
Cosmos 2084 Rocket 3.4 20:56:22 10° SW 21:00:20 76° NW 21:04:24 10° NE
Cosmos 1763 Rocket 3.9 20:57:44 10° NNW 21:02:39 47° ENE 21:04:17 34° ESE
Cosmos 1190 Rocket 4.2 20:58:54 10° SSW 21:04:07 71° WNW 21:09:21 10° NNE
Terra 2.8 21:03:52 29° E 21:04:58 32° ENE 21:09:12 10° N
Meteor 2-8 Rocket 4.4 21:02:57 23° S 21:06:48 67° E 21:12:53 10° NNE
BREEZE-M DEB (TANK) 2.5 21:07:04 10° WNW 21:08:46 42° WSW 21:08:46 42° WSW
Cosmos 540 Rocket 4.5 21:05:42 10° N 21:10:17 32° ENE 21:11:41 28° E
SPOT 5 3.0 21:14:08 44° ESE 21:15:11 54° ENE 21:19:54 10° N
NOSS 3-1 (C) 4.2 21:08:38 10° NW 21:15:54 64° NE 21:20:23 30° ESE
Cosmos-2242 3.8 21:12:34 13° SSW 21:16:19 51° WNW 21:20:33 10° N
SPOT 1/Viking Rocket 3.7 21:14:17 31° S 21:16:50 74° WSW 21:22:05 10° NNW
Cosmos 2151 4.5 21:14:03 10° NNW 21:17:57 34° W 21:20:45 16° SSW
FALCON 9 DEB 3.4 21:15:46 10° WSW 21:18:47 56° NNW 21:18:54 56° NNW
Cosmos 1842 Rocket 4.1 21:20:26 41° E 21:20:26 41° E 21:24:28 10° NNE
Cosmos 676 Rocket 4.0 21:17:21 10° SSW 21:22:31 81° WNW 21:27:44 10° NNE
SL-16 R/B 2.2 21:17:29 10° NNW 21:23:11 76° WSW 21:25:19 40° S
USA 215 3.2 21:21:35 34° ESE 21:24:44 84° NE 21:31:19 10° NW
SL-4 R/B 2.4 21:25:01 10° WSW 21:29:28 75° NNW 21:33:32 14° ENE
COSMOS 2455 2.8 21:26:47 10° SSW 21:32:48 87° WNW 21:38:53 10° NNE
Cosmos 1408 Rocket 3.3 21:30:15 10° N 21:34:35 77° E 21:34:52 73° ESE
ERS-1 Rocket 2.9 21:33:52 54° SSE 21:35:02 85° ENE 21:40:05 10° NNW
Cosmos 2221 2.5 21:41:54 65° ENE 21:41:54 65° ENE 21:45:50 10° NNE
Cosmos 1862 3.4 21:37:52 10° N 21:41:30 68° NE 21:41:30 68° NE
ARIANE 5 R/B 3.1 21:41:36 44° SW 21:42:32 52° W 21:46:50 10° NNW
USA 245 4.4 21:43:09 31° WSW 21:43:15 31° WSW 21:46:05 10° NW
Meteor 2-15 Rocket 4.3 21:43:55 47° S 21:45:45 76° E 21:51:50 10° NNE
Cosmos 1943 3.6 21:43:35 10° NNW 21:49:02 48° ENE 21:50:06 43° E
Cosmos 1745 Rocket 4.2 21:46:10 10° N 21:52:19 52° ENE 21:53:25 47° ESE
Cosmos 1570 Rocket 4.5 21:47:36 10° NNW 21:52:42 46° ENE 21:53:15 44° E
Cosmos 1743 Rocket 3.7 21:49:07 10° N 21:53:02 61° NE 21:53:02 61° NE
SeaSat 1 4.4 21:50:01 10° NE 21:51:18 15° ENE 21:51:18 15° ENE
Cosmos 44 Rocket 3.9 21:53:59 10° SW 21:59:01 60° NW 22:04:12 10° NNE
TSX-5 4.4 22:01:04 40° WSW 22:02:32 61° WNW 22:06:27 10° NNE
Cosmos 1606 4.2 22:06:56 29° NNE 22:06:56 29° NNE 22:08:57 10° NNE
Cosmos 1741 Rocket 3.9 22:05:12 69° SSW 22:05:52 89° WNW 22:11:12 10° NNE
CRYOSAT 2 4.3 22:05:43 72° SW 22:06:04 76° W 22:11:00 10° N
S3M 4.1 22:05:25 55° ESE 22:06:09 59° E 22:12:25 10° NNE
BREEZE-M DEB (TANK) 3.3 21:59:14 10° WNW 22:06:19 63° WSW 22:06:19 63° WSW
Cosmos 1850 Rocket 3.9 22:08:07 65° SW 22:08:53 81° WNW 22:14:10 10° NNE
Cosmos 1500 Rocket 3.7 22:07:01 10° N 22:11:06 72° NW 22:11:06 72° NW
Cosmos 2263 Rocket 2.1 22:16:15 70° E 22:16:15 70° E 22:21:35 10° NNE
Aureole 1 Rocket 3.4 22:17:34 76° SW 22:17:58 84° WNW 22:22:34 10° NNE
H-2A R/B 4.1 22:17:16 10° N 22:21:10 54° WNW 22:21:10 54° WNW
Cosmos 1386 Rocket 4.2 22:15:43 10° N 22:21:47 82° E 22:22:22 73° SE
USA 229 DEB 3.8 22:17:58 10° NW 22:25:18 86° SW 22:27:01 59° SSE
USA 229 3.8 22:18:03 10° NW 22:25:24 86° SW 22:27:07 58° SSE
Cosmos 2227 Rocket 4.4 22:21:22 10° W 22:25:52 24° NW 22:30:24 10° N
Lacrosse 5 rocket 2.2 22:21:44 10° NW 22:25:34 49° NNE 22:25:34 49° NNE
Cosmos 2208 Rocket 4.0 22:27:34 10° NNW 22:32:47 78° NE 22:32:47 78° NE
Cosmos 1553 Rocket 4.2 22:33:03 49° SW 22:34:28 63° WNW 22:40:33 10° N
ALOS 2 4.2 22:35:37 26° NE 22:35:37 26° NE 22:38:34 10° N
Cosmos 841 Rocket 3.8 22:31:29 10° NNW 22:36:20 58° W 22:36:20 58° W
Cosmos 1603 3.7 22:32:11 10° NNW 22:37:52 74° WSW 22:37:52 74° WSW
Terra 3.1 22:42:44 32° W 22:42:44 32° W 22:46:58 10° NNW
NOSS 3-1 (A) 4.0 22:35:46 10° NW 22:43:18 77° SW 22:45:03 59° SSE
Cosmos 921 Rocket 4.3 22:46:03 10° NNW 22:49:08 38° WNW 22:49:08 38° WNW
Cosmos 540 Rocket 4.4 22:47:14 10° NW 22:51:30 37° W 22:51:30 37° W
Cosmos 1814 Rocket 4.4 22:47:17 10° NNW 22:51:58 58° WNW 22:51:58 58° WNW
Meteor 2-17 Rocket 4.3 22:49:16 10° N 22:55:27 88° E 22:55:34 87° SE
USA 215 4.2 23:08:55 32° WSW 23:08:55 32° WSW 23:13:58 10° WNW
SL-4 R/B 3.3 23:05:08 10° WNW 23:09:10 45° NNW 23:09:10 45° NNW
Cosmos 2184 Rocket 4.4 23:08:43 10° N 23:14:51 49° ENE 23:14:58 49° E
Cosmos 2315 Rocket 3.9 23:16:01 81° WSW 23:16:10 82° W 23:22:35 10° N
ATLAS 5 CENTAUR R/B 3.9 23:18:59 10° NNW 23:23:28 27° NNE 23:27:06 16° E
SeaSat 1 3.0 23:26:48 10° NNE 23:31:05 55° NNW 23:31:05 55° NNW
Iridium 4 Rocket 4.0 23:38:02 56° NNW 23:38:02 56° NNW 23:42:29 10° N
Cosmos 1844 4.3 23:41:40 48° ENE 23:41:40 48° ENE 23:46:00 10° NNE
Cosmos 2074 Rocket 4.0 23:35:04 10° N 23:41:12 78° ENE 23:41:12 78° ENE
USA 281 3.8 23:43:08 42° E 23:44:38 49° NE 23:50:55 10° NNW
